Avoca, PA

3:18 PM EST on December 05, 2019 (GMT -0500)
Wilkes-Barre-Scranton International

Weather History for KAVP - November, 2019

Change the Weather History Date:

Friday, November 22, 2019

  Actual Average Record
Temperature  
Mean Temperature 42 °F 39 °F  
Max Temperature 51 °F 47 °F 72 °F (1931)
Min Temperature 32 °F 32 °F 9 °F (2018)
Degree Days  
Heating Degree Days 24 26  
Month to date heating degree days 583 489  
Since 1 July heating degree days 905 1092  
Cooling Degree Days 0 0  
Month to date cooling degree days 0 0  
Year to date cooling degree days 846 580  
Moisture  
Dew Point 32 °F    
Average Humidity 65    
Maximum Humidity 89    
Minimum Humidity 48    
Precipitation  
Precipitation 0.09 in 0.11 in 2.12 in (1991)
Month to date precipitation 0.85 2.30  
Year to date precipitation 46.08 34.74  
Sea Level Pressure  
Sea Level Pressure 29.83 in    
Wind  
Wind Speed 8 mph ()    
Max Wind Speed 23 mph    
Max Gust Speed 32 mph    
Visibility 8.2 miles    
Events Rain    
T = Trace of Precipitation, MM = Missing Value Source: Averaged Metar Reports

Daily Weather History Graph

Daily Weather History Graph

Search for Another Location

Airport or City:

Astronomy

Nov. 22, 2019 Rise Set
Actual Time 6:59 AM EST 4:38 PM EST
Civil Twilight 6:28 AM EST 5:08 PM EST
Nautical Twilight 5:55 AM EST 5:42 PM EST
Astronomical Twilight 5:22 AM EST 6:15 PM EST
Moon 1:58 AM EST (11/22) 2:41 PM EST (11/22)
Length of Visible Light 10h 39m
Length of Day
9h 39m
Waning Crescent, 20% of the Moon is Illuminated
Nov 22
Waning Crescent
Nov 26
New
Dec 4
First Quarter
Dec 12
Full
Dec 18
Last Quarter

Hourly Weather History & Observations

Time (EST) Temp. Windchill Dew Point Humidity Pressure Visibility Wind Dir Wind Speed Gust Speed Precip Events Conditions
12:54 AM 48.0 °F - 32.0 °F 54% 29.88 in 10.0 mi SW 6.9 mph - 0.00 in   Overcast
1:54 AM 48.0 °F - 33.1 °F 56% 29.87 in 10.0 mi NW 3.5 mph - N/A   Overcast
2:54 AM 48.0 °F - 33.1 °F 56% 29.84 in 10.0 mi SW 6.9 mph - N/A   Overcast
3:54 AM 46.9 °F - 34.0 °F 61% 29.82 in 9.0 mi WSW 5.8 mph - N/A   Overcast
4:54 AM 46.9 °F - 33.1 °F 59% 29.81 in 10.0 mi SW 3.5 mph - N/A   Overcast
5:54 AM 48.0 °F - 34.0 °F 58% 29.79 in 10.0 mi SW 5.8 mph - N/A   Overcast
6:54 AM 48.9 °F - 35.1 °F 59% 29.77 in 10.0 mi WSW 8.1 mph - N/A   Overcast
7:54 AM 51.1 °F - 37.0 °F 59% 29.70 in 10.0 mi SSW 4.6 mph - N/A   Overcast
8:54 AM 50.0 °F - 36.0 °F 59% 29.74 in 10.0 mi West 8.1 mph - N/A   Overcast
9:29 AM 50.0 °F - 36.0 °F 59% 29.74 in 10.0 mi SSW 6.9 mph - N/A   Overcast
9:54 AM 48.0 °F - 39.9 °F 74% 29.75 in 5.0 mi WSW 11.5 mph - 0.00 in Rain Light Rain
10:47 AM 46.0 °F 40.2 °F 43.0 °F 89% 29.76 in 1.8 mi West 12.7 mph - 0.01 in Rain Light Rain
10:54 AM 46.0 °F 41.0 °F 43.0 °F 89% 29.76 in 1.8 mi West 10.4 mph - 0.02 in Rain Heavy Rain
11:01 AM 46.0 °F 41.4 °F 43.0 °F 89% 29.75 in 2.5 mi West 9.2 mph - 0.02 in Rain Light Rain
11:09 AM 46.0 °F 41.9 °F 43.0 °F 89% 29.77 in 3.0 mi WNW 8.1 mph - 0.03 in Rain Light Rain
11:26 AM 46.0 °F 39.3 °F 42.1 °F 86% 29.77 in 2.5 mi NW 16.1 mph 21.9 mph 0.05 in Rain Light Rain
11:28 AM 46.0 °F 39.9 °F 41.0 °F 83% 29.77 in 3.0 mi NW 13.8 mph 21.9 mph 0.05 in Rain Light Rain
11:47 AM 46.0 °F 41.0 °F 39.9 °F 79% 29.78 in 6.0 mi WNW 10.4 mph - 0.06 in Rain Light Rain
11:54 AM 46.0 °F 43.1 °F 39.9 °F 79% 29.79 in 7.0 mi WNW 5.8 mph 17.3 mph 0.06 in Rain Light Rain
12:54 PM 44.1 °F 38.6 °F 36.0 °F 73% 29.79 in 10.0 mi NW 10.4 mph - 0.01 in Rain Light Rain
1:54 PM 43.0 °F 33.8 °F 33.1 °F 68% 29.77 in 10.0 mi NNW 23.0 mph 27.6 mph 0.00 in   Overcast
2:42 PM 42.1 °F 34.5 °F 32.0 °F 67% 29.80 in 10.0 mi NW 15.0 mph 21.9 mph 0.00 in   Mostly Cloudy
2:54 PM 43.0 °F 36.0 °F 30.9 °F 62% 29.80 in 10.0 mi NNW 13.8 mph - 0.00 in   Mostly Cloudy
3:54 PM 42.1 °F 33.9 °F 27.0 °F 55% 29.83 in 10.0 mi NNW 17.3 mph 26.5 mph N/A   Mostly Cloudy
4:54 PM 39.9 °F 31.1 °F 23.0 °F 51% 29.88 in 10.0 mi WNW 17.3 mph 27.6 mph N/A   Mostly Cloudy
5:54 PM 39.0 °F 29.9 °F 21.0 °F 49% 29.94 in 10.0 mi WNW 17.3 mph 28.8 mph N/A   Mostly Cloudy
6:54 PM 37.9 °F 30.5 °F 19.9 °F 48% 29.96 in 10.0 mi WNW 11.5 mph 21.9 mph N/A   Mostly Cloudy
7:54 PM 37.0 °F 28.5 °F 19.9 °F 50% 29.99 in 10.0 mi WNW 13.8 mph - N/A   Mostly Cloudy
8:54 PM 36.0 °F 28.5 °F 19.9 °F 52% 29.99 in 10.0 mi NNW 10.4 mph 24.2 mph N/A   Mostly Cloudy
9:54 PM 35.1 °F 27.9 °F 19.9 °F 54% 30.01 in 10.0 mi NNW 9.2 mph - N/A   Mostly Cloudy
10:54 PM 34.0 °F 28.0 °F 19.0 °F 54% 30.02 in 10.0 mi NNW 6.9 mph - N/A   Mostly Cloudy
11:54 PM 32.0 °F 26.4 °F 19.0 °F 59% 30.03 in 10.0 mi North 5.8 mph - N/A   Clear